[[{"header":{"parameterUnit":"m.s-1","parameterCategory":1,"la1":30.2991,"la2":30.254,"lo1":-89.0895,"lo2":-89.0444,"dy":0.0017,"dx":0.0017,"nx":28,"ny":28,"refTime":"2023-09-30T09:00:00:Z","depth":0,"parameterNumber":2,"parameterNumberName":"U-component_of_WINDS"},"data":[0,0,0,0,0,0,0,0,0,0,0,0,0,0,0,0,0,0,0,0,0,0,0,0,0,0,0,0,0,0,0,0,0,0,0,0,0,0,0,0,0,0,0,0,0,0,0,0,0,0,0,0,0,0,0,0,0,0,-5.456,-5.456,0,-5.4594,-5.4595,-5.4595,-5.45,-5.4497,-5.4494,-5.4491,-5.4527,-5.4531,-5.4535,0,0,0,0,0,0,0,0,0,0,0,0,0,-5.4414,-5.4417,-5.456,-5.456,-5.456,-5.4594,-5.4595,-5.4595,-5.4501,-5.4497,-5.4493,-5.449,-5.4526,-5.4531,-5.4535,0,0,0,0,0,0,0,0,0,0,0,0,0,-5.4466,-5.4418,-5.456,-5.4517,-5.4514,-5.4594,-5.4595,-5.4595,-5.4501,-5.4497,-5.4492,-5.4488,-5.4525,-5.453,-5.4536,-5.4658,0,0,-5.4553,-5.4555,0,0,0,0,0,0,0,0,-5.4463,-5.4471,-5.4523,-5.452,-5.4517,-5.4538,-5.4556,-5.4616,-5.4502,-5.4506,-5.4491,-5.4486,-5.4535,-5.4539,-5.4555,-5.466,-5.4661,-5.4553,-5.4556,-5.4559,-5.456,0,0,0,0,0,0,0,-5.4459,-5.4469,-5.4573,-5.4524,-5.452,-5.4497,-5.45,-5.4567,-5.4545,-5.4505,-5.4499,-5.4504,-5.4532,-5.455,-5.4555,-5.4662,-5.4553,-5.4558,-5.4561,-5.4563,-5.4872,-5.4876,0,0,0,0,0,0,-5.4461,-5.4467,-5.4572,-5.4574,-5.4478,-5.4504,-5.4506,-5.4536,-5.4544,-5.4541,-5.4508,-5.4499,-5.4543,-5.4549,-5.4556,-5.4702,-5.4559,-5.4564,-5.4567,-5.4867,-5.4873,-5.4878,0,0,0,0,0,0,-5.4458,-5.4471,-5.4571,-5.4519,-5.453,-5.4511,-5.4545,-5.4539,-5.4557,-5.4545,-5.4541,-5.453,-5.454,-5.4549,-5.4634,-5.4702,-5.4567,-5.4572,-5.4861,-5.4869,-5.4875,-5.4995,0,0,0,0,0,0,-5.4454,-5.4471,-5.4517,-5.452,-5.4533,-5.4648,-5.4549,-5.4543,-5.4567,-5.4556,-5.4565,-5.4563,-5.4537,-5.4626,-5.464,-5.4708,-5.4576,-5.4855,-5.4865,-5.4873,-5.4985,-5.5005,-5.5023,0,0,0,0,0,-5.4449,-5.4548,-5.4519,-5.4533,-5.459,-5.4652,-5.4659,-5.4627,-5.4572,-5.4619,-5.4612,-5.4563,-5.4692,-5.4636,-5.465,-5.4721,-5.4851,-5.4862,-5.4872,-5.4976,-5.5001,-5.5022,0,0,0,0,0,0,-5.4553,-5.4548,-5.4516,-5.4619,-5.4637,-5.4636,-5.4693,-5.4654,-5.4688,-5.4676,-5.4635,-5.4638,-5.4732,-5.4734,-5.4672,-5.4841,-5.4762,-5.4777,-5.4836,-5.486,-5.4879,-5.4877,-5.4581,0,0,0,0,0,-5.4588,-5.4638,-5.4631,-5.4723,-5.4733,-5.4712,-5.4738,-5.4712,-5.4729,-5.4736,-5.4735,-5.4753,-5.4798,-5.4829,-5.487,-5.4984,-5.4986,-5.504,-5.5059,-5.5075,-5.5088,-5.5151,-5.5176,-5.4914,-5.4914,-5.4914,0,0,-5.466,-5.4664,-5.4698,-5.4744,-5.4754,-5.4809,-5.4719,-5.478,-5.482,-5.4745,-5.4826,-5.4827,-5.4845,-5.4946,-5.4991,-5.4951,-5.5161,-5.5088,-5.5101,-5.5106,-5.5165,-5.519,-5.5212,-5.4921,-5.492,-5.4919,0,0,-5.482,-5.4827,-5.4905,-5.4918,-5.4936,-5.4921,-5.494,-5.4946,-5.4943,-5.5024,-5.497,-5.5017,-5.5095,-5.5111,-5.513,-5.5298,-5.5255,-5.5312,-5.5413,-5.5475,-5.5496,-5.5514,-5.5576,-5.5599,-5.5325,-5.5326,-5.5326,0,-5.4908,-5.4987,-5.495,-5.5016,-5.5039,-5.4973,-5.5053,-5.5067,-5.5098,-5.5115,-5.507,-5.5168,-5.5176,-5.5281,-5.5323,-5.5339,-5.5361,-5.5312,-5.5495,-5.5513,-5.553,-5.5589,-5.5612,-5.5333,-5.5332,-5.5331,-5.5331,0,-5.5096,-5.5152,-5.5213,-5.5245,-5.5274,-5.5346,-5.5321,-5.5356,-5.5327,-5.5318,-5.5403,-5.5409,-5.5452,-5.5474,-5.5447,-5.5577,-5.5552,-5.5502,-5.5422,-5.5562,-5.5617,-5.564,-5.5343,-5.534,-5.5338,-5.5337,0,0,-5.5322,-5.5333,-5.5356,-5.5371,-5.5386,-5.5429,-5.5499,-5.5541,-5.5572,-5.5595,-5.5654,-5.5723,-5.5677,-5.5698,-5.5672,-5.5727,-5.5863,-5.567,-5.567,-5.5708,-5.601,-5.6049,-5.6076,-5.5834,-5.5838,-5.5841,-5.6009,0,-5.5481,-5.5601,-5.5572,-5.5691,-5.5744,-5.5684,-5.5745,-5.5762,-5.5755,-5.5799,-5.5792,-5.5842,-5.5777,-5.579,-5.5841,-5.5836,-5.5923,-5.5823,-5.589,-5.5893,-5.5889,-5.6104,-5.6145,-5.6303,-5.603,-5.6033,-5.6036,0,-5.5683,-5.5716,-5.5841,-5.585,-5.5871,-5.5927,-5.5964,-5.6006,-5.6025,-5.6016,-5.6041,-5.6005,-5.6075,-5.5994,-5.6092,-5.6025,-5.605,-5.6052,-5.6058,-5.6064,-5.5974,-5.6118,-5.6352,-5.6377,-5.6069,-5.6066,-5.6064,0,-5.5839,-5.5913,-5.5999,-5.6013,-5.6025,-5.6066,-5.6073,-5.6086,-5.6114,-5.6146,-5.6164,-5.6204,-5.6227,-5.6259,-5.6236,-5.6178,-5.6339,-5.6255,-5.6335,-5.6336,-5.6373,-5.6371,-5.6617,-5.6386,-5.6386,-5.6386,-5.6385,0,-5.6021,-5.6101,-5.6069,-5.6122,-5.621,-5.6175,-5.6263,-5.6263,-5.6277,-5.6329,-5.6279,-5.6329,-5.6294,-5.6342,-5.6324,-5.6409,-5.6419,-5.6415,-5.641,-5.6421,-5.6422,-5.6439,-5.6428,-5.6392,-5.6391,-5.6389,-5.6388,0,-5.621,-5.6192,-5.6281,-5.6286,-5.6289,-5.6354,-5.6358,-5.6408,-5.6398,-5.6465,-5.6479,-5.6464,-5.6518,-5.6497,-5.6554,-5.6542,-5.6652,-5.6631,-5.6647,-5.6642,-5.6724,-5.6718,-5.6991,-5.7026,-5.6771,-5.6774,-5.6776,0,-5.6329,-5.6389,-5.6401,-5.6432,-5.6443,-5.6495,-5.6523,-5.6491,-5.6523,-5.655,-5.6597,-5.6647,-5.6685,-5.6775,-5.6769,-5.6814,-5.6795,-5.6887,-5.6801,-5.6811,-5.6799,-5.6797,-5.6804,-5.6905,-5.6908,-5.691,-5.6912,0,-5.6543,-5.6531,-5.6574,-5.6614,-5.665,-5.668,-5.6706,-5.6735,-5.6705,-5.6743,-5.6798,-5.6828,-5.6887,-5.6938,-5.6978,-5.6986,-5.6946,-5.6939,-5.6961,-5.6974,-5.6981,-5.6981,-5.6696,-5.6934,-5.6931,-5.693,-5.6929,-5.6928,-5.6701,-5.6753,-5.677,-5.682,-5.6836,-5.6862,-5.691,-5.6907,-5.6952,-5.6998,-5.6976,-5.7041,-5.706,-5.7109,-5.7123,-5.7174,-5.7138,-5.7168,-5.7176,-5.7185,-5.7197,-5.6972,-5.718,-5.718,-5.7179,-5.7179,-5.7178,0,-5.6915,-5.6923,-5.6969,-5.7008,-5.7048,-5.7005,-5.7032,-5.7069,-5.7126,-5.7147,-5.7186,-5.7251,-5.73,-5.73,-5.7346,-5.7387,-5.737,-5.7401,-5.7398,-5.7401,-5.7225,-5.7203,-5.7414,-5.7414,-5.7414,-5.7414,-5.7414,-5.7414,-5.703,-5.7116,-5.7107,-5.7201,-5.7209,-5.7272,-5.7291,-5.7316,-5.7332,-5.7407,-5.7448,-5.7447,-5.746,-5.7507,-5.7551,-5.755,-5.7571,-5.7609,-5.7601,-5.7437,-5.7413,-5.7391,-5.737,-5.7613,-5.7613,-5.7773,-5.7775,-5.7776]},{"header":{"parameterUnit":"m.s-1","parameterCategory":1,"la1":30.2991,"la2":30.254,"lo1":-89.0895,"lo2":-89.0444,"dy":0.0017,"dx":0.0017,"nx":28,"ny":28,"refTime":"2023-09-30T09:00:00:Z","depth":0,"parameterNumber":3,"parameterNumberName":"V-component_of_WINDS"},"data":[0,0,0,0,0,0,0,0,0,0,0,0,0,0,0,0,0,0,0,0,0,0,0,0,0,0,0,0,0,0,0,0,0,0,0,0,0,0,0,0,0,0,0,0,0,0,0,0,0,0,0,0,0,0,0,0,0,0,-2.2118,-2.2118,0,-2.2121,-2.2121,-2.2121,-2.2075,-2.2074,-2.2073,-2.2071,-2.2075,-2.2076,-2.2077,0,0,0,0,0,0,0,0,0,0,0,0,0,-2.2074,-2.2075,-2.2118,-2.2118,-2.2118,-2.2121,-2.2121,-2.2121,-2.2075,-2.2074,-2.2072,-2.2071,-2.2075,-2.2076,-2.2077,0,0,0,0,0,0,0,0,0,0,0,0,0,-2.2086,-2.2075,-2.2118,-2.2096,-2.2094,-2.2121,-2.2121,-2.2121,-2.2076,-2.2074,-2.2072,-2.207,-2.2074,-2.2076,-2.2078,-2.2126,0,0,-2.2083,-2.2084,0,0,0,0,0,0,0,0,-2.2086,-2.2088,-2.2099,-2.2097,-2.2095,-2.2096,-2.2106,-2.2122,-2.2076,-2.2083,-2.2071,-2.2069,-2.2083,-2.2084,-2.2089,-2.2126,-2.2126,-2.2084,-2.2085,-2.2085,-2.2086,0,0,0,0,0,0,0,-2.2085,-2.2088,-2.2119,-2.2099,-2.2097,-2.2085,-2.2085,-2.2109,-2.2093,-2.2082,-2.2079,-2.2079,-2.2082,-2.2087,-2.2089,-2.2126,-2.2083,-2.2085,-2.2086,-2.2087,-2.2203,-2.2205,0,0,0,0,0,0,-2.2087,-2.2087,-2.2119,-2.2119,-2.2086,-2.2088,-2.2088,-2.2097,-2.2093,-2.209,-2.2081,-2.2077,-2.2085,-2.2087,-2.2089,-2.2145,-2.2085,-2.2087,-2.2088,-2.2201,-2.2203,-2.2205,0,0,0,0,0,0,-2.2086,-2.209,-2.2119,-2.2102,-2.2105,-2.2091,-2.2102,-2.2098,-2.2104,-2.2092,-2.2089,-2.2089,-2.2084,-2.2086,-2.2117,-2.2144,-2.2088,-2.209,-2.2198,-2.2202,-2.2204,-2.2257,0,0,0,0,0,0,-2.2085,-2.209,-2.2109,-2.2103,-2.2106,-2.2147,-2.2104,-2.21,-2.2107,-2.2102,-2.2099,-2.2097,-2.2082,-2.2114,-2.2119,-2.2146,-2.2091,-2.2196,-2.22,-2.2203,-2.2253,-2.2262,-2.2269,0,0,0,0,0,-2.2084,-2.2124,-2.211,-2.2114,-2.2129,-2.2149,-2.2151,-2.2133,-2.2109,-2.2127,-2.212,-2.2097,-2.214,-2.2118,-2.2122,-2.215,-2.2194,-2.2199,-2.2203,-2.2249,-2.226,-2.2269,0,0,0,0,0,0,-2.2134,-2.2123,-2.2107,-2.2147,-2.2149,-2.2141,-2.2164,-2.2145,-2.2154,-2.2149,-2.2126,-2.2126,-2.2161,-2.2158,-2.2134,-2.2196,-2.2163,-2.2169,-2.2197,-2.2207,-2.2215,-2.2215,-2.2093,0,0,0,0,0,-2.2149,-2.2166,-2.2156,-2.2192,-2.2194,-2.2179,-2.2187,-2.2173,-2.2174,-2.2175,-2.217,-2.2173,-2.2187,-2.2196,-2.2209,-2.2252,-2.2251,-2.2274,-2.2282,-2.2288,-2.2293,-2.2316,-2.2325,-2.222,-2.222,-2.222,0,0,-2.2182,-2.2178,-2.219,-2.2202,-2.2202,-2.222,-2.218,-2.2201,-2.2214,-2.2178,-2.2207,-2.2203,-2.2205,-2.2242,-2.2258,-2.2241,-2.2322,-2.2294,-2.2299,-2.2301,-2.2321,-2.2331,-2.234,-2.2223,-2.2222,-2.2222,0,0,-2.225,-2.2249,-2.2279,-2.2279,-2.228,-2.2269,-2.2276,-2.2271,-2.2267,-2.2296,-2.2269,-2.2284,-2.2309,-2.2311,-2.2315,-2.2383,-2.2362,-2.2387,-2.2429,-2.2451,-2.246,-2.2467,-2.2491,-2.25,-2.2393,-2.2393,-2.2393,0,-2.2291,-2.2317,-2.2296,-2.2319,-2.2325,-2.2292,-2.2322,-2.2323,-2.2328,-2.2333,-2.2313,-2.2343,-2.2342,-2.2379,-2.2395,-2.24,-2.2407,-2.2388,-2.246,-2.2467,-2.2474,-2.2496,-2.2505,-2.2396,-2.2395,-2.2395,-2.2395,0,-2.2367,-2.2385,-2.2409,-2.2414,-2.2422,-2.2448,-2.2431,-2.2442,-2.2426,-2.2418,-2.2447,-2.2444,-2.2455,-2.2462,-2.2448,-2.2497,-2.2486,-2.2464,-2.243,-2.2487,-2.2508,-2.2517,-2.24,-2.2399,-2.2398,-2.2397,0,0,-2.2468,-2.246,-2.2469,-2.247,-2.2468,-2.2482,-2.2506,-2.2516,-2.2526,-2.253,-2.2549,-2.257,-2.2549,-2.2554,-2.2539,-2.2559,-2.2612,-2.2534,-2.2533,-2.2548,-2.2666,-2.2683,-2.2693,-2.2598,-2.26,-2.2601,-2.2666,0,-2.2535,-2.2576,-2.2557,-2.26,-2.2616,-2.2585,-2.2606,-2.2607,-2.2599,-2.2612,-2.2603,-2.2619,-2.259,-2.2592,-2.261,-2.2602,-2.2635,-2.2597,-2.2616,-2.2617,-2.2617,-2.2704,-2.2722,-2.2783,-2.2674,-2.2675,-2.2676,0,-2.2618,-2.2625,-2.2669,-2.2663,-2.2669,-2.2688,-2.2695,-2.2708,-2.2708,-2.2701,-2.2706,-2.2686,-2.2709,-2.2675,-2.2707,-2.2681,-2.2687,-2.2685,-2.2687,-2.2688,-2.265,-2.2708,-2.2803,-2.2812,-2.2689,-2.2688,-2.2687,0,-2.2687,-2.2708,-2.2736,-2.2738,-2.2732,-2.2746,-2.2744,-2.2742,-2.2748,-2.2755,-2.2759,-2.2768,-2.2773,-2.2781,-2.2764,-2.2741,-2.2798,-2.2762,-2.2793,-2.2793,-2.2806,-2.2806,-2.2904,-2.281,-2.281,-2.281,-2.281,0,-2.2764,-2.2792,-2.2767,-2.2785,-2.2816,-2.2793,-2.2824,-2.2819,-2.2817,-2.2833,-2.2807,-2.2822,-2.2799,-2.2813,-2.28,-2.2828,-2.283,-2.2825,-2.2822,-2.2828,-2.2829,-2.2832,-2.2828,-2.2813,-2.2812,-2.2812,-2.2811,0,-2.2847,-2.2831,-2.286,-2.2851,-2.2849,-2.2872,-2.2864,-2.288,-2.287,-2.2891,-2.2895,-2.2879,-2.2893,-2.2877,-2.2891,-2.2882,-2.292,-2.291,-2.292,-2.2917,-2.2948,-2.2945,-2.3052,-2.3064,-2.2963,-2.2964,-2.2965,0,-2.2897,-2.2918,-2.291,-2.2919,-2.2918,-2.2932,-2.2939,-2.2917,-2.2925,-2.2926,-2.2942,-2.2954,-2.2962,-2.2987,-2.2977,-2.2987,-2.2977,-2.3013,-2.2978,-2.2983,-2.2977,-2.2976,-2.2978,-2.3021,-2.3022,-2.3023,-2.3024,0,-2.2987,-2.2978,-2.2988,-2.2996,-2.3004,-2.3009,-2.3012,-2.3021,-2.2998,-2.3009,-2.3022,-2.3029,-2.3042,-2.3054,-2.3061,-2.3058,-2.3038,-2.3035,-2.3042,-2.3049,-2.3054,-2.3051,-2.2939,-2.3032,-2.3032,-2.3031,-2.303,-2.303,-2.3055,-2.3071,-2.3068,-2.3081,-2.308,-2.3083,-2.3098,-2.3089,-2.31,-2.3109,-2.3095,-2.3113,-2.3111,-2.3118,-2.3118,-2.3131,-2.3116,-2.3127,-2.313,-2.3133,-2.3137,-2.3051,-2.3133,-2.3132,-2.3132,-2.3132,-2.3132,0,-2.3143,-2.3139,-2.3151,-2.3155,-2.3165,-2.3143,-2.3145,-2.3154,-2.317,-2.317,-2.3178,-2.3194,-2.3205,-2.3196,-2.3205,-2.3218,-2.3208,-2.3221,-2.322,-2.322,-2.3151,-2.3143,-2.3228,-2.3228,-2.3228,-2.3228,-2.3228,-2.3228,-2.3191,-2.3218,-2.3208,-2.3234,-2.323,-2.3247,-2.3249,-2.3252,-2.3252,-2.327,-2.3279,-2.3273,-2.3269,-2.3278,-2.3287,-2.3284,-2.3289,-2.3305,-2.3298,-2.3234,-2.3225,-2.3216,-2.3208,-2.3306,-2.3306,-2.3366,-2.3367,-2.3367]}]]